Location: Luzay
(46.9230°N, 0.1949°W)
Time: 11:33:38
(UTC+00:00)

Daily predictions for brighter satellites

Satellite Brightness Start Highest point End
(mag) Time Altitude Azimuth Time Altitude Azimuth Time Altitude Azimuth
ARGOS 3.6 18:11:00 10° SE 18:16:03 41° ENE 18:21:06 10° N
Cosmos 1515 4.5 18:13:07 10° N 18:16:34 31° ENE 18:19:58 10° SE
Gbstr 26 Del rocket 3.4 18:12:37 10° WSW 18:16:51 70° NNW 18:22:02 10° ENE
USA 307 3.8 18:14:23 10° W 18:18:31 45° NNW 18:22:39 10° NE
SKYMED 2 3.6 18:15:58 10° NNE 18:20:21 90° NW 18:24:42 10° SSW
H-2A R/B 3.2 18:17:14 10° N 18:21:10 46° WNW 18:25:06 10° SW
Cosmos 2084 Rocket 4.1 18:17:07 10° NNW 18:21:11 39° NE 18:25:22 10° ESE
ATLAS CENTAUR R/B 2.9 18:19:32 10° SE 18:21:14 13° ESE 18:22:56 10° E
SL-4 R/B 2.6 18:18:04 10° WNW 18:21:27 37° N 18:24:42 10° ENE
USA 306 3.8 18:18:17 10° W 18:22:22 42° NNW 18:26:27 10° NE
SJ-11-01 4.4 18:18:07 10° SSE 18:22:39 53° ENE 18:27:14 10° N
Cosmos 1805 Rocket 4.1 18:19:43 10° SSW 18:24:04 65° W 18:28:29 10° N
Cosmos 1470 Rocket 4.4 18:20:40 10° SSE 18:24:32 29° E 18:28:24 10° NNE
Meteor 1-20 Rocket 4.2 18:19:53 10° S 18:25:13 60° E 18:30:38 10° NNE
SL-08 RB Rocket 4.4 18:21:56 10° SE 18:25:55 32° ENE 18:29:57 10° N
CZ-2C R/B 3.4 18:22:07 10° NNE 18:26:58 31° E 18:31:41 10° SSE
Cosmos 1689 Rocket 2.8 18:25:43 10° NE 18:28:18 29° E 18:30:53 10° SSE
USA 308 3.9 18:25:02 10° W 18:29:06 41° NNW 18:33:11 10° NE
Okean O Rocket 3.9 18:25:24 10° SSW 18:29:14 30° W 18:33:05 10° NNW
Cosmos 1992 Rocket 4.5 18:28:05 10° S 18:32:52 38° ESE 18:37:42 10° NE
PSLV R/B 4.0 18:29:40 10° NNE 18:33:41 51° E 18:37:38 10° S
Cosmos 1486 Rocket 4.0 18:30:01 10° NNW 18:35:17 67° ENE 18:40:34 10° SSE
SAR-Lupe-4 4.0 18:32:38 10° NNE 18:36:01 38° E 18:39:23 10° S
Cosmos 968 Rocket 3.5 18:30:49 10° NNW 18:36:06 76° ENE 18:41:23 10° SSE
IRS-1C Rocket 4.3 18:32:56 10° SSE 18:38:12 80° WSW 18:43:31 10° NNW
H-2A R/B 2.2 18:34:10 10° SSE 18:39:36 87° ENE 18:45:06 10° NNW
APEX 3.3 18:37:46 10° NW 18:40:32 51° WSW 18:43:10 10° SSE
FALCON 9 DEB 4.5 18:39:50 10° WNW 18:42:39 28° N 18:45:16 11° NE
USA 234 3.8 18:37:54 10° ENE 18:43:53 37° SE 18:49:51 10° SSW
Cosmos 1933 Rocket 4.2 18:41:40 10° SSE 18:45:31 32° E 18:49:24 10° NNE
Aureole 2 Rocket 2.3 18:43:26 10° N 18:45:48 32° ENE 18:47:11 18° ESE
SeaSat 1 2.7 18:41:05 10° NE 18:45:51 46° ESE 18:50:35 10° S
Cosmos 1844 Rocket 3.1 18:41:13 10° NNW 18:46:31 42° NE 18:51:47 10° SE
CSL-04 Rocket 3.8 18:41:21 10° SSE 18:46:48 59° ENE 18:52:13 10° N
CSL-04 Debris 4.2 18:41:33 10° SSE 18:46:54 63° ENE 18:52:19 10° N
Cosmos 1666 Rocket 3.7 18:42:36 10° SSW 18:46:57 80° W 18:51:17 10° N
OBJECT-B 2.8 18:47:22 13° ENE 18:47:22 13° ENE 18:48:44 10° NE
Cosmos 1271 Rocket 3.6 18:43:35 10° NNW 18:47:15 53° W 18:50:54 10° S
Cosmos 1862 Rocket 3.5 18:44:12 10° N 18:48:43 77° E 18:53:12 10° SSE
Cosmos 2242 Rocket 4.3 18:45:24 10° N 18:49:30 33° ENE 18:53:33 10° SE
ERS-2 2.1 18:46:00 10° NNE 18:49:38 62° ESE 18:53:15 10° S
Cosmos 1666 4.0 18:48:36 10° SE 18:51:12 18° E 18:53:50 10° NE
Cosmos 1302 Rocket 4.4 18:47:17 10° SSW 18:52:26 65° WNW 18:57:38 10° NNE
Nadezhda 3 Rocket 4.0 18:48:17 10° N 18:54:41 76° E 19:01:03 10° SSE
Cosmos 1844 4.2 18:49:35 10° NNW 18:55:04 42° NE 18:59:37 14° ESE
SAR-Lupe-1 4.0 18:51:42 10° NNE 18:55:19 69° ESE 18:58:53 10° S
Meteor 1-19 Rocket 4.3 18:50:01 10° N 18:56:01 82° ENE 19:01:49 10° SSE
Cosmos 1602 3.8 18:53:59 10° S 18:57:52 82° W 19:01:49 10° N
Cosmos 2360 Rocket 2.5 18:54:19 10° S 18:59:38 44° ESE 19:04:59 10° NE
Cosmos 2154 Rocket 3.9 18:54:12 10° S 19:00:24 78° E 19:06:37 10° N
Cosmos 2278 Rocket 3.9 18:57:11 10° N 19:00:30 16° NE 19:02:28 13° ENE
Cosmos 1354 Rocket 4.1 18:55:59 10° NNW 19:01:10 56° ENE 19:06:18 10° SE
Cosmos 2074 Rocket 4.4 18:55:14 10° SSW 19:01:28 70° W 19:07:44 10° N
YAOGAN 1 3.2 18:58:53 10° S 19:03:08 58° W 19:07:25 10° NNW
Meteor 2-4 Rocket 3.8 18:58:55 10° N 19:04:41 59° ENE 19:10:31 10° SSE
Cosmos 1295 Rocket 4.4 18:58:45 10° S 19:04:58 72° E 19:11:09 10° NNE
Cosmos 1610 Rocket 4.4 18:58:56 10° S 19:05:07 84° E 19:11:26 10° N
Cosmos 2333 Rocket 3.2 19:02:15 10° SSE 19:06:34 23° E 19:08:25 19° ENE
FALCON 9 DEB 3.4 19:03:18 10° NW 19:06:42 54° NNE 19:08:06 30° E
GP-B 3.2 19:02:25 10° SSE 19:06:43 53° E 19:11:03 10° N
Cosmos 1461 4.2 19:03:59 10° WSW 19:08:34 48° NW 19:13:10 10° NNE
Cosmos 1500 3.0 19:05:55 10° S 19:09:36 62° E 19:13:18 10° NNE
Cosmos 1503 Rocket 3.9 19:06:49 10° NNW 19:12:03 78° ENE 19:17:12 10° SSE
Abrixas rocket 1.6 19:10:21 10° W 19:12:51 65° N 19:13:15 51° NE
HJ-1C 4.2 19:12:33 10° S 19:15:48 52° W 19:19:02 10° NNW
Cosmos 1980 Rocket 4.3 19:11:22 10° WSW 19:16:02 26° NW 19:20:44 10° N
Helios 1A Rocket 3.2 19:12:13 10° S 19:16:16 67° WSW 19:20:18 10° NNW
BREEZE-M DEB (TANK) 4.4 19:14:27 10° SW 19:18:36 72° SSE 19:36:06 10° ENE
Ariane Rocket 3.4 19:19:27 24° ESE 19:22:02 42° ENE 19:26:49 10° N
SJ 16-02 3.2 19:22:16 10° NNE 19:24:29 16° NE 19:24:29 16° NE
Cosmos 44 Rocket 4.2 19:21:31 10° NW 19:26:38 53° WSW 19:31:39 10° SSE
FALCON 9 DEB 4.4 19:24:22 10° WNW 19:27:06 26° N 19:27:41 24° NNE
FALCON 9 DEB 4.5 19:24:49 10° WNW 19:27:35 26° N 19:28:14 24° NNE
Okean 1-7 2.9 19:23:59 10° N 19:28:22 67° E 19:31:28 18° SSE
Cosmos 2322 Rocket 2.5 19:23:17 10° SW 19:28:51 68° WNW 19:34:28 10° NNE
USA 186 3.2 19:31:18 19° N 19:31:18 19° N 19:32:10 10° N
SJ-6B 2.9 19:28:27 33° SE 19:30:01 56° ENE 19:34:01 10° N
MOS 1 4.4 19:27:32 22° SE 19:31:03 52° ENE 19:36:33 10° N
Meteor 1-14 Rocket 4.3 19:27:32 10° SSW 19:33:06 79° WNW 19:38:41 10° N
SL-8 Rocket 4.0 19:28:16 10° S 19:34:23 59° E 19:40:28 10° NNE
Cosmos 962 Rocket 4.4 19:29:54 10° S 19:36:07 87° E 19:42:26 10° N
COSMOS 2428 4.4 19:31:30 10° SSE 19:32:47 16° SSE 19:32:47 16° SSE
Meteor 1-11 Rocket 4.0 19:31:25 10° SSE 19:36:48 44° E 19:42:06 10° NNE
SME Rocket 4.2 19:30:54 10° NNE 19:39:13 59° E 19:44:34 10° S
Cosmos 1869 Rocket 3.7 19:39:35 48° E 19:39:35 48° E 19:43:45 10° NNE
ATLAS 5 CENTAUR R/B 4.3 19:32:35 10° W 19:41:17 28° NW 19:44:39 10° NNE
CZ-4 R/B 4.3 19:41:05 10° SW 19:43:38 17° W 19:46:14 10° NW
Cosmos 1339 Rocket 4.4 19:40:38 10° N 19:46:51 82° E 19:53:08 10° S
Cosmos 2219 Rocket 2.8 19:42:16 10° S 19:46:09 35° SE 19:46:09 35° SE
USA 305 4.2 19:44:31 10° WNW 19:48:21 31° N 19:49:23 27° NNE
Cosmos 2366 rocket 4.0 19:42:33 10° S 19:48:45 62° E 19:55:01 10° NNE
ERBS 4.2 19:46:16 10° WNW 19:48:58 23° NNW 19:49:50 20° N
Meteor 1-13 Rocket 4.2 19:43:35 10° N 19:49:34 73° ENE 19:53:01 26° SSE
IRS-1A Rocket 4.1 19:46:49 26° SSE 19:50:09 75° ENE 19:55:43 10° NNW
SL-16 R/B 3.6 19:47:42 10° WSW 19:52:59 39° NW 19:58:18 10° NNE
MetOp-A 4.3 19:48:40 10° S 19:54:00 73° WSW 19:59:23 10° NNW
Cosmos 2341 Rocket 4.1 19:48:03 10° SSW 19:54:23 79° W 20:00:41 10° N
Cosmos 1066 Rocket 4.2 19:50:58 10° N 19:56:37 61° ENE 19:57:55 48° SE
USA 307 4.1 19:55:24 10° WNW 19:59:14 31° N 19:59:47 30° NNE
ATLAS CENTAUR R/B 1.4 19:56:01 10° SW 19:59:36 61° NW 19:59:42 60° NW
SL-4 R/B 2.6 19:57:57 10° WNW 20:00:36 43° NNW 20:00:36 43° NNW
USA 306 4.1 19:59:14 10° WNW 20:03:05 31° N 20:03:25 31° NNE
Cosmos 2322 3.6 19:58:33 10° SSW 20:04:14 69° ESE 20:09:56 10° NNE
Gbstr 26 Del rocket 4.0 19:59:43 10° WNW 20:04:19 50° N 20:05:31 42° NE
CZ-2C R/B 3.9 20:02:12 10° N 20:07:21 42° WNW 20:12:24 10° SW
Cosmos 1727 Rocket 3.9 20:03:19 10° N 20:09:29 67° E 20:10:41 55° SE
USA 308 4.2 20:06:00 10° WNW 20:09:51 31° N 20:09:55 31° N
Okean 3 3.7 20:07:22 10° N 20:11:01 65° NNW 20:11:01 65° NNW
ASTEX 1 3.3 20:09:28 10° N 20:14:23 82° W 20:15:59 43° SSW
Cosmos 2218 Rocket 4.0 20:08:01 10° S 20:14:25 85° W 20:20:52 10° N
Cosmos 192 4.4 20:11:37 10° SSW 20:22:43 - NNE 20:15:48 66° SSW
OBJECT-B 3.0 20:20:26 25° NW 20:20:26 25° NW 20:22:05 10° NNW
Meteor 2-20 4.3 20:13:41 10° N 20:19:48 71° ENE 20:20:13 68° ESE
BREEZE-M DEB (TANK) 3.0 20:19:53 10° WNW 20:22:09 57° NW 20:22:09 57° NW
SeaSat 1 4.2 20:18:52 10° NNE 20:23:13 32° NW 20:27:32 10° WSW
Resurs 01 Rocket 2.9 20:26:55 33° N 20:26:55 33° N 20:29:25 10° N
Cosmos 1666 4.3 20:23:09 10° SW 20:26:31 32° WNW 20:29:56 10° N
USA 234 3.3 20:24:20 36° NE 20:27:15 78° NNW 20:33:47 10° WSW
Cosmos 1844 Rocket 4.1 20:25:20 10° NW 20:30:18 34° WSW 20:33:33 19° SSW
Cosmos 2333 4.5 20:29:17 10° SW 20:34:52 66° WNW 20:40:35 10° NNE
Cosmos 2360 Rocket 3.7 20:38:37 10° WSW 20:43:45 35° NW 20:48:56 10° NNE
Cosmos 2278 Rocket 2.8 20:40:05 10° NNW 20:44:20 48° N 20:44:20 48° N
SPOT 3 Rocket 4.1 20:49:36 55° NW 20:49:36 55° NW 20:53:49 10° NNW
Cosmos 2333 Rocket 2.5 20:44:41 10° SW 20:50:19 63° WNW 20:50:49 60° NNW
NOSS 3-3 (A) 4.4 20:54:20 10° NW 21:01:45 78° NE 21:01:45 78° NE
NOSS 3-3 (C) 4.4 20:54:26 10° NW 21:01:50 78° NE 21:01:50 78° NE
SJ 16-02 3.5 20:59:48 10° NNW 21:01:29 23° NNW 21:01:29 23° NNW
Cosmos 1943 Rocket 4.2 21:04:58 10° N 21:07:04 18° N 21:07:04 18° N
Cosmos 2219 Rocket 4.2 21:26:17 10° WSW 21:37:51 - NNE 21:28:09 20° WSW
